This is the latest recevied weather packets stored in our database for station/object SP5EB-3. If no packets are shown the sender has not sent any weather packets the latest 1 day(s).
| Time | Temp. | Humidity | Pressure | Rain* | Wind** | Luminosity | Snow |
|---|---|---|---|---|---|---|---|
| 1777993446 | 28.89° C | 99% | 1004.5 hPa | - | 0 m/s | - | - |
| 1777993136 | 29.44° C | 99% | 1004.6 hPa | - | 0 m/s | - | - |
| 1777992826 | 30° C | 99% | 1004.7 hPa | - | 0 m/s | - | - |
| 1777992514 | 30° C | 99% | 1004.7 hPa | - | 0 m/s | - | - |
| 1777991894 | 30° C | 99% | 1004.7 hPa | - | 0 m/s | - | - |
| 1777991583 | 30° C | 99% | 1004.6 hPa | - | 0 m/s | - | - |
| 1777991273 | 30.56° C | 99% | 1004.7 hPa | - | 0 m/s | - | - |
| 1777990963 | 31.11° C | 99% | 1004.7 hPa | - | 0 m/s | - | - |
| 1777990651 | 30.56° C | 99% | 1004.8 hPa | - | 0 m/s | - | - |
| 1777990341 | 29.44° C | 99% | 1004.8 hPa | - | 0 m/s | - | - |
| 1777990031 | 28.33° C | 99% | 1004.7 hPa | - | 0 m/s | - | - |
| 1777989721 | 27.78° C | 99% | 1005 hPa | - | 0 m/s | - | - |
| 1777989102 | 27.22° C | 99% | 1005.1 hPa | - | 0 m/s | - | - |
| 1777988791 | 27.22° C | 99% | 1005 hPa | - | 0 m/s | - | - |
| 1777988482 | 26.67° C | 99% | 1005.1 hPa | - | 0 m/s | - | - |
| 1777988172 | 26.67° C | 99% | 1005.2 hPa | - | 0 m/s | - | - |
| 1777987553 | 27.22° C | 99% | 1005.3 hPa | - | 0 m/s | - | - |
| 1777987243 | 27.22° C | 99% | 1005.3 hPa | - | 0 m/s | - | - |
| 1777986933 | 27.22° C | 99% | 1005.3 hPa | - | 0 m/s | - | - |
| 1777986623 | 27.22° C | 99% | 1005.4 hPa | - | 0 m/s | - | - |
| 1777986313 | 27.22° C | 99% | 1005.4 hPa | - | 0 m/s | - | - |
| 1777986004 | 27.22° C | 99% | 1005.4 hPa | - | 0 m/s | - | - |
| 1777985694 | 27.22° C | 99% | 1005.4 hPa | - | 0 m/s | - | - |
| 1777985074 | 27.78° C | 99% | 1005.6 hPa | - | 0 m/s | - | - |
| 1777984764 | 28.33° C | 99% | 1005.7 hPa | - | 0 m/s | - | - |
* Rain since midnight (hover to see other rain measurements)
** Current wind speed in m/s (hover to see current wind gust speed)